[[{"header":{"parameterUnit":"m.s-1","parameterCategory":1,"la1":30.2991,"la2":30.254,"lo1":-89.0895,"lo2":-89.0444,"dy":0.0017,"dx":0.0017,"nx":28,"ny":28,"refTime":"2024-12-07T03:00:00:Z","depth":0,"parameterNumber":2,"parameterNumberName":"U-component_of_WINDS"},"data":[0,0,0,0,0,0,0,0,0,0,0,0,0,0,0,0,0,0,0,0,0,0,0,0,0,0,0,0,0,0,0,0,0,0,0,0,0,0,0,0,0,0,0,0,0,0,0,0,0,0,0,0,0,0,0,0,0,0,-2.8713,-2.8713,0,-2.8712,-2.8712,-2.8712,-2.8616,-2.8613,-2.8611,-2.8608,-2.8608,-2.861,-2.8613,0,0,0,0,0,0,0,0,0,0,0,0,0,-2.863,-2.8632,-2.8713,-2.8713,-2.8713,-2.8712,-2.8712,-2.8712,-2.8616,-2.8613,-2.861,-2.8607,-2.8607,-2.861,-2.8613,0,0,0,0,0,0,0,0,0,0,0,0,0,-2.8652,-2.8633,-2.8713,-2.8665,-2.866,-2.8712,-2.8712,-2.8712,-2.8617,-2.8613,-2.8609,-2.8606,-2.8606,-2.861,-2.8613,-2.8711,0,0,-2.8624,-2.8625,0,0,0,0,0,0,0,0,-2.8651,-2.8655,-2.8672,-2.8668,-2.8663,-2.866,-2.8683,-2.8712,-2.8618,-2.8633,-2.8608,-2.8604,-2.8628,-2.863,-2.8638,-2.8711,-2.8711,-2.8624,-2.8626,-2.8628,-2.8629,0,0,0,0,0,0,0,-2.8649,-2.8654,-2.8713,-2.8672,-2.8667,-2.8643,-2.8642,-2.8688,-2.8652,-2.8632,-2.8625,-2.8626,-2.8625,-2.8635,-2.8637,-2.8711,-2.8624,-2.8627,-2.863,-2.8631,-2.8864,-2.8867,0,0,0,0,0,0,-2.8654,-2.8654,-2.8713,-2.8713,-2.8647,-2.8648,-2.8646,-2.8665,-2.8651,-2.8646,-2.8629,-2.8621,-2.8631,-2.8633,-2.8637,-2.875,-2.8628,-2.8631,-2.8633,-2.886,-2.8864,-2.8869,0,0,0,0,0,0,-2.8653,-2.866,-2.8713,-2.8681,-2.8686,-2.8653,-2.8675,-2.8667,-2.8676,-2.865,-2.8643,-2.8646,-2.8628,-2.8632,-2.8693,-2.8749,-2.8633,-2.8636,-2.8855,-2.8861,-2.8867,-2.8977,0,0,0,0,0,0,-2.8651,-2.8661,-2.8698,-2.8683,-2.8688,-2.8769,-2.8678,-2.867,-2.8683,-2.8673,-2.8663,-2.8658,-2.8625,-2.8688,-2.8697,-2.8751,-2.8639,-2.885,-2.8858,-2.8865,-2.8969,-2.8986,-2.9002,0,0,0,0,0,-2.8648,-2.8729,-2.87,-2.8708,-2.8734,-2.8773,-2.8776,-2.8736,-2.8688,-2.8724,-2.8707,-2.8658,-2.8742,-2.8696,-2.8704,-2.8761,-2.8846,-2.8855,-2.8864,-2.8961,-2.8983,-2.9001,0,0,0,0,0,0,-2.8751,-2.8726,-2.8694,-2.8772,-2.8775,-2.8756,-2.8801,-2.8761,-2.8778,-2.8768,-2.8718,-2.8717,-2.8786,-2.8779,-2.8729,-2.8854,-2.8785,-2.8796,-2.8856,-2.8876,-2.8893,-2.8892,-2.8642,0,0,0,0,0,-2.8783,-2.8817,-2.8793,-2.8864,-2.8868,-2.8835,-2.885,-2.882,-2.8821,-2.8822,-2.8809,-2.8812,-2.8839,-2.8857,-2.888,-2.8968,-2.8964,-2.9011,-2.9027,-2.9041,-2.9051,-2.9096,-2.9116,-2.8899,-2.8899,-2.8899,0,0,-2.8849,-2.8839,-2.8864,-2.8885,-2.8884,-2.8919,-2.8836,-2.8878,-2.8904,-2.8828,-2.8884,-2.8876,-2.8876,-2.895,-2.8982,-2.8947,-2.911,-2.9053,-2.9064,-2.9066,-2.9107,-2.9128,-2.9146,-2.8905,-2.8904,-2.8903,0,0,-2.8987,-2.8984,-2.9042,-2.9043,-2.9042,-2.902,-2.9034,-2.9021,-2.9012,-2.9068,-2.9012,-2.9042,-2.909,-2.9092,-2.9099,-2.9239,-2.9194,-2.9248,-2.9334,-2.9378,-2.9395,-2.941,-2.9459,-2.9477,-2.9258,-2.9258,-2.9258,0,-2.9069,-2.912,-2.9077,-2.9123,-2.9133,-2.9066,-2.9125,-2.9128,-2.9135,-2.9144,-2.9104,-2.9162,-2.9158,-2.9231,-2.9265,-2.9274,-2.9288,-2.9248,-2.9396,-2.9411,-2.9424,-2.947,-2.9489,-2.9265,-2.9264,-2.9263,-2.9263,0,-2.9221,-2.9258,-2.9305,-2.9313,-2.9329,-2.9382,-2.9346,-2.9368,-2.9336,-2.9318,-2.9376,-2.9368,-2.9388,-2.9404,-2.9373,-2.9473,-2.9451,-2.9405,-2.9334,-2.9452,-2.9494,-2.9512,-2.9274,-2.9272,-2.927,-2.9268,0,0,-2.9423,-2.9407,-2.9425,-2.9427,-2.9422,-2.9449,-2.9498,-2.9518,-2.9537,-2.9545,-2.9584,-2.9626,-2.9583,-2.9591,-2.9561,-2.96,-2.971,-2.9548,-2.9548,-2.9578,-2.9818,-2.9852,-2.9873,-2.968,-2.9684,-2.9686,-2.9818,0,-2.9556,-2.9638,-2.96,-2.9687,-2.972,-2.9657,-2.9699,-2.9701,-2.9685,-2.9711,-2.9693,-2.9723,-2.9665,-2.967,-2.9706,-2.9689,-2.9757,-2.9679,-2.9716,-2.9718,-2.9717,-2.9895,-2.9931,-3.0056,-2.9834,-2.9837,-2.9839,0,-2.9721,-2.9735,-2.9825,-2.9813,-2.9825,-2.9864,-2.9879,-2.9905,-2.9905,-2.989,-2.99,-2.9861,-2.9908,-2.9838,-2.9902,-2.985,-2.9863,-2.9857,-2.9861,-2.9862,-2.9785,-2.99,-3.0094,-3.0113,-2.9865,-2.9863,-2.9861,0,-2.9859,-2.99,-2.9958,-2.9963,-2.9951,-2.9979,-2.9976,-2.9972,-2.9986,-2.9999,-3.0007,-3.0026,-3.0036,-3.0052,-3.0018,-2.9971,-3.0086,-3.0014,-3.0075,-3.0076,-3.0101,-3.01,-3.03,-3.0112,-3.0112,-3.0112,-3.0111,0,-3.001,-3.0067,-3.002,-3.0056,-3.0118,-3.0074,-3.0137,-3.0126,-3.0124,-3.0156,-3.0104,-3.0135,-3.009,-3.0117,-3.0091,-3.0148,-3.0153,-3.0142,-3.0135,-3.0146,-3.0148,-3.0153,-3.0143,-3.0117,-3.0116,-3.0115,-3.0114,0,-3.0173,-3.0144,-3.0203,-3.0187,-3.0184,-3.0231,-3.0216,-3.0249,-3.023,-3.0272,-3.0279,-3.0249,-3.0279,-3.0247,-3.0275,-3.0257,-3.0333,-3.0313,-3.0333,-3.0326,-3.0389,-3.0383,-3.0598,-3.0624,-3.0421,-3.0423,-3.0425,0,-3.0271,-3.0314,-3.0302,-3.032,-3.0319,-3.0349,-3.0363,-3.0322,-3.0339,-3.0342,-3.0374,-3.0399,-3.0417,-3.0467,-3.0448,-3.0468,-3.0448,-3.0522,-3.0451,-3.0461,-3.0448,-3.0445,-3.0449,-3.0536,-3.0539,-3.0541,-3.0542,0,-3.0448,-3.0432,-3.0454,-3.0471,-3.0489,-3.0501,-3.0508,-3.0526,-3.0484,-3.0505,-3.0535,-3.0549,-3.0576,-3.0602,-3.0617,-3.0612,-3.0571,-3.0565,-3.058,-3.0592,-3.0601,-3.0596,-3.0371,-3.056,-3.0558,-3.0557,-3.0556,-3.0555,-3.0581,-3.0615,-3.0612,-3.0638,-3.064,-3.0648,-3.0678,-3.0662,-3.0686,-3.0705,-3.068,-3.0716,-3.0715,-3.073,-3.0731,-3.0759,-3.0728,-3.075,-3.0755,-3.0761,-3.077,-3.0598,-3.0762,-3.0761,-3.0761,-3.076,-3.076,0,-3.0754,-3.0749,-3.0774,-3.0786,-3.0806,-3.0765,-3.0771,-3.0791,-3.0824,-3.0826,-3.0845,-3.0878,-3.0903,-3.0886,-3.0906,-3.0932,-3.0913,-3.0938,-3.0935,-3.0935,-3.0797,-3.0781,-3.0953,-3.0953,-3.0953,-3.0953,-3.0953,-3.0953,-3.0846,-3.0902,-3.0885,-3.0941,-3.0935,-3.097,-3.0977,-3.0984,-3.0986,-3.1026,-3.1045,-3.1034,-3.1029,-3.1048,-3.1069,-3.1063,-3.1073,-3.1105,-3.1092,-3.0964,-3.0945,-3.0927,-3.0912,-3.1108,-3.1108,-3.1227,-3.1229,-3.1229]},{"header":{"parameterUnit":"m.s-1","parameterCategory":1,"la1":30.2991,"la2":30.254,"lo1":-89.0895,"lo2":-89.0444,"dy":0.0017,"dx":0.0017,"nx":28,"ny":28,"refTime":"2024-12-07T03:00:00:Z","depth":0,"parameterNumber":3,"parameterNumberName":"V-component_of_WINDS"},"data":[0,0,0,0,0,0,0,0,0,0,0,0,0,0,0,0,0,0,0,0,0,0,0,0,0,0,0,0,0,0,0,0,0,0,0,0,0,0,0,0,0,0,0,0,0,0,0,0,0,0,0,0,0,0,0,0,0,0,0.6797,0.6797,0,0.6762,0.6762,0.6762,0.6711,0.671,0.6709,0.6708,0.6671,0.667,0.667,0,0,0,0,0,0,0,0,0,0,0,0,0,0.682,0.682,0.6797,0.6797,0.6797,0.6763,0.6762,0.6762,0.6711,0.671,0.6709,0.6708,0.6671,0.667,0.667,0,0,0,0,0,0,0,0,0,0,0,0,0,0.68,0.682,0.6797,0.6767,0.6764,0.6763,0.6762,0.6761,0.6711,0.671,0.6709,0.6707,0.6671,0.667,0.667,0.6695,0,0,0.6669,0.6669,0,0,0,0,0,0,0,0,0.6801,0.6799,0.6772,0.6769,0.6766,0.674,0.6756,0.6739,0.6712,0.6731,0.6708,0.6707,0.6695,0.6692,0.6688,0.6693,0.6691,0.6669,0.6669,0.6669,0.6669,0,0,0,0,0,0,0,0.6803,0.68,0.6783,0.6772,0.6768,0.6755,0.6751,0.6753,0.6721,0.673,0.6726,0.6722,0.6693,0.6689,0.6687,0.6691,0.6669,0.6669,0.6669,0.6669,0.6715,0.6716,0,0,0,0,0,0,0.6809,0.6802,0.6785,0.6782,0.6781,0.6756,0.6751,0.6749,0.6721,0.6715,0.6724,0.672,0.669,0.6688,0.6686,0.6713,0.6669,0.6669,0.6669,0.6714,0.6715,0.6717,0,0,0,0,0,0,0.6809,0.6808,0.6786,0.6791,0.6788,0.6757,0.6755,0.6749,0.6746,0.6716,0.671,0.6726,0.6689,0.6686,0.6693,0.6711,0.6669,0.6668,0.6712,0.6714,0.6716,0.6768,0,0,0,0,0,0,0.681,0.6808,0.6817,0.6792,0.6787,0.6795,0.6757,0.675,0.6746,0.6741,0.6716,0.6711,0.6688,0.6694,0.6693,0.671,0.6668,0.671,0.6713,0.6715,0.6765,0.6772,0.6778,0,0,0,0,0,0.6811,0.6833,0.6818,0.6816,0.6798,0.6796,0.6793,0.6766,0.6747,0.6756,0.6737,0.6712,0.671,0.6695,0.6694,0.6711,0.6709,0.6712,0.6715,0.6762,0.677,0.6778,0,0,0,0,0,0,0.686,0.6829,0.6812,0.6826,0.6814,0.6787,0.6797,0.6776,0.6769,0.6764,0.6731,0.6726,0.6737,0.6725,0.6709,0.6734,0.6705,0.6708,0.6741,0.6749,0.6756,0.6759,0.6668,0,0,0,0,0,0.6872,0.6873,0.6846,0.6861,0.6856,0.6828,0.6826,0.6806,0.6792,0.6787,0.6768,0.6755,0.6752,0.675,0.6745,0.6763,0.6757,0.6774,0.6781,0.6786,0.6789,0.6799,0.6806,0.6727,0.6727,0.6727,0,0,0.6898,0.6881,0.6883,0.687,0.6858,0.686,0.6824,0.6827,0.6828,0.6787,0.6793,0.6779,0.6762,0.6776,0.678,0.6765,0.681,0.679,0.6795,0.6795,0.6803,0.6811,0.6817,0.6729,0.6729,0.6728,0,0,0.6945,0.6932,0.6944,0.6933,0.6917,0.6898,0.6901,0.6878,0.6868,0.6874,0.6844,0.6844,0.6838,0.6828,0.6822,0.6868,0.6845,0.6867,0.6901,0.6911,0.6918,0.6923,0.694,0.6946,0.687,0.687,0.687,0,0.6978,0.698,0.6952,0.6958,0.6953,0.6917,0.6929,0.692,0.6903,0.69,0.6884,0.6877,0.6863,0.6874,0.6886,0.6882,0.6884,0.6869,0.6919,0.6924,0.6929,0.6944,0.6951,0.6873,0.6873,0.6873,0.6872,0,0.7022,0.7024,0.7035,0.7021,0.7017,0.7026,0.6999,0.6999,0.6981,0.6964,0.6971,0.6954,0.6945,0.6946,0.6928,0.6955,0.6946,0.6925,0.6896,0.694,0.6954,0.696,0.6877,0.6876,0.6875,0.6875,0,0,0.7098,0.7069,0.7074,0.7067,0.7047,0.7048,0.7055,0.7048,0.7049,0.7038,0.7044,0.7041,0.7022,0.7015,0.6995,0.7004,0.7042,0.6981,0.6981,0.6994,0.7072,0.7089,0.7096,0.7027,0.7028,0.7029,0.7074,0,0.7141,0.7152,0.7128,0.7145,0.7147,0.7114,0.7121,0.7109,0.7094,0.7094,0.7077,0.7076,0.705,0.7046,0.7054,0.7036,0.7058,0.7032,0.7032,0.7032,0.7037,0.7103,0.712,0.7163,0.7079,0.708,0.7081,0,0.7193,0.7186,0.7204,0.7184,0.7184,0.719,0.7182,0.7182,0.7169,0.7158,0.7152,0.7129,0.7135,0.7108,0.7116,0.7099,0.7098,0.7089,0.709,0.7089,0.7059,0.7104,0.7176,0.7183,0.7089,0.7089,0.7088,0,0.7247,0.7242,0.7253,0.7248,0.7225,0.7231,0.7221,0.7207,0.7204,0.7198,0.7196,0.719,0.7186,0.7182,0.7158,0.714,0.717,0.714,0.7161,0.7161,0.7168,0.7168,0.7241,0.7167,0.7167,0.7167,0.7167,0,0.7298,0.731,0.7277,0.7283,0.7296,0.7268,0.7282,0.7269,0.7257,0.7261,0.7232,0.7236,0.7204,0.7205,0.7186,0.7197,0.7195,0.7186,0.7181,0.7189,0.719,0.7187,0.7183,0.7169,0.7168,0.7168,0.7168,0,0.7359,0.7338,0.7347,0.7325,0.732,0.7331,0.7312,0.7317,0.7302,0.7306,0.7306,0.7281,0.728,0.7257,0.7251,0.7238,0.7256,0.7245,0.7261,0.7258,0.728,0.7278,0.7354,0.7363,0.7283,0.7284,0.7285,0,0.7393,0.7402,0.7382,0.7383,0.7375,0.7376,0.7374,0.7348,0.7347,0.7334,0.7341,0.7338,0.7334,0.7335,0.7316,0.7312,0.7301,0.7328,0.73,0.7308,0.7302,0.7301,0.7302,0.7333,0.7334,0.7335,0.7336,0,0.7456,0.7445,0.7443,0.7438,0.7437,0.7432,0.7424,0.7427,0.7398,0.7398,0.7398,0.7395,0.739,0.7388,0.7381,0.7371,0.7349,0.7345,0.735,0.7357,0.7366,0.7362,0.7277,0.7343,0.7342,0.7342,0.7341,0.7341,0.7505,0.7511,0.7499,0.7498,0.749,0.7485,0.7489,0.7474,0.7474,0.7468,0.7452,0.7455,0.7443,0.7431,0.7424,0.7425,0.7411,0.7418,0.742,0.7422,0.7426,0.7366,0.7424,0.7423,0.7423,0.7423,0.7423,0,0.7566,0.7557,0.7556,0.7548,0.7548,0.7528,0.752,0.7521,0.7523,0.7514,0.7512,0.7512,0.751,0.7493,0.7489,0.7494,0.7484,0.7494,0.7493,0.7491,0.7438,0.7435,0.7502,0.7502,0.7502,0.7502,0.7502,0.7502,0.7598,0.7608,0.7597,0.7603,0.7594,0.7596,0.7594,0.7589,0.7581,0.7583,0.7582,0.7571,0.7558,0.7554,0.7552,0.7546,0.7546,0.756,0.7552,0.7502,0.7495,0.7487,0.7484,0.756,0.756,0.7604,0.7605,0.7605]}]]